Weather Roundup
Issued by NWS

Home | Current Version | Previous Version | Graphics & Text | Print | Product List | Glossary Off
Versions: 1 2 3 4 5 6 7 8 9 10 11 12 13 14 15 16 17 18 19 20 21 22 23 24 25 26 27 28 29 30 31 32 33 34 35 36 37 38 39 40 41 42 43 44 45 46 47 48 49 50

000
NZUS93 KARX 261059
HRRWXR

CURRENT HOURLY OBSERVATIONS ACROSS
MUCH OF THE UPPER MISSISSIPPI VALLEY
NATIONAL WEATHER SERVICE LA CROSSE WI
500 AM CST THU FEB 26 2015


...SOUTHEAST MINNESOTA...


CITY           SKY/WX    TMP DP  RH WIND       PRES   REMARKS
ROCHESTER      CLEAR     -5 -13  68 N12       30.26R WCI -23
ROCHESTER/MAYO FAIR      -2 -12  61 NW7       30.28R WCI -16
WINONA         CLEAR      0  -8  71 CALM      30.32R
AUSTIN         CLEAR     -4 -11  71 N8        30.27R WCI -19
ALBERT LEA     CLEAR     -6 -11  77 NW7       30.29R WCI -20
DODGE CENTER   PTCLDY    -6 -13  71 N8        30.26R WCI -21
PRESTON        CLEAR     -4 -13  65 N6        30.25R WCI -17
OWATONNA       CLEAR    -11 -18  70 CALM      30.32R
FARIBAULT      CLEAR     -6 -13  71 NW7       30.33R WCI -20
$$

...ELSEWHERE IN MINNESOTA...


CITY           SKY/WX    TMP DP  RH WIND       PRES   REMARKS
MINNEAPOLIS    CLEAR     -1 -12  59 N13       30.36R WCI -19
INTNL FALLS    MOCLDY   -19 -24  77 NW3       30.36R
DULUTH         PTCLDY   -11 -18  71 NW6       30.27R WCI -25
RED WING       CLEAR      0 -15  50 N8        30.33R WCI -15
REDWOOD FALLS  CLEAR     -7 -12  79 NW12      30.41R WCI -26
MANKATO        CLEAR     -6 -15  65 NW10      30.35R WCI -23
WORTHINGTON    CLEAR     23 -15  18 N14       30.35R WCI  11
FAIRMONT       CLEAR     -6 -11  77 NW13      30.32R WCI -25
$$

...SOUTHWEST WISCONSIN...


CITY           SKY/WX    TMP DP  RH WIND       PRES   REMARKS
LA CROSSE      CLEAR     -5 -12  72 NW10      30.29R WCI -23
PRAIRIE DU CHI PTCLDY     4  -9  56 CALM      30.24R
BOSCOBEL       CLEAR      3  -7  63 N3        30.25R
LONE ROCK      NOT AVBL
PLATTEVILLE    CLOUDY     5  -3  69 NW10      30.15S WCI -10
FORT MC COY    CLOUDY    -1  -8  69 CALM      30.27R
VIROQUA        FAIR       0  -8  68 N9        30.18R WCI -16
WIS DELLS      NOT AVBL
$$

...ELSEWHERE IN WISCONSIN...


CITY           SKY/WX    TMP DP  RH WIND       PRES   REMARKS
MILWAUKEE      LGT SNOW  10   5  80 N13       30.14R VSB 3/4 WCI  -5
MADISON        MOCLDY     5  -2  72 N13       30.18R WCI -12
GREEN BAY      CLEAR     -2  -9  72 N8        30.24R WCI -17
EAU CLAIRE     NOT AVBL
BLACK RVR FLS  FAIR      -2 -11  67 CALM      30.26R
MEDFORD        CLEAR    -10 -14  81 N5        30.19R WCI -21
WAUSAU         CLEAR     -7 -11  83 NW6       30.20R FOG     WCI -20
WIS RAPIDS     CLEAR     -3 -12  65 NE7       30.24R WCI -16
MARSHFIELD     CLEAR     -4 -10  75 N8        30.21R WCI -19
RICE LAKE      CLEAR     -5 -14  66 N3        30.30R
$$

...NORTHEAST IOWA...


CITY           SKY/WX    TMP DP  RH WIND       PRES   REMARKS
DECORAH        CLEAR      0 -11  60 N12       30.21R WCI -18
MASON CITY     CLEAR     -6 -13  71 NW14      30.29R WCI -26
CHARLES CITY   CLEAR     -6 -15  65 N13       30.26R WCI -25
OELWEIN        CLEAR     -2 -11  65 N12       30.22R WCI -20
$$

...ELSEWHERE IN IOWA...


CITY           SKY/WX    TMP DP  RH WIND       PRES   REMARKS
DES MOINES     PTCLDY     5  -5  63 N15       30.29R WCI -13
IOWA CITY      CLOUDY     9  -1  64 N15       30.22R WCI  -8
FORT DODGE     CLEAR     -2 N/A N/A N8        30.33R WCI -17
$$

...NORTHERN ILLINOIS...


CITY           SKY/WX    TMP DP  RH WIND       PRES   REMARKS
CHICAGO-OHARE  LGT SNOW  16  12  84 NE13      30.08R FOG     WCI   2
CHICAGO-MIDWAY LGT SNOW  20  15  81 NE18      30.07R VSB 1   WCI   5
MOLINE         CLOUDY    14   8  77 N6        30.16R HAZE    WCI   5
ROCKFORD       LGT SNOW  13   7  77 N14       30.14R WCI  -2
PEORIA         LGT SNOW  17  13  84 N8        30.09R FOG     WCI   7
$$

NOTE: "FAIR" INDICATES FEW OR NO CLOUDS BELOW 12,000 FEET WITH NO
SIGNIFICANT WEATHER AND/OR OBSTRUCTIONS TO VISIBILITY. WIND
SPEEDS ARE IN MILES-PER-HOUR.



USA.gov is the U.S. government's official web portal to all federal, state and local government web resources and services.